Regional Weather Roundup
Issued by NWS

Home | Current Version | Previous Version | Text Only | Print | Product List | Glossary Off
Versions: 1 2 3 4 5 6 7 8 9 10 11 12 13 14 15 16 17 18 19 20 21 22 23 24 25 26 27 28 29 30 31 32 33 34 35 36 37 38 39 40 41 42 43 44 45 46 47 48 49 50

000
ASUS43 KDMX 210207
RWRIA

WEATHER ROUNDUP FOR IOWA
NATIONAL WEATHER SERVICE DES MOINES IA
900 PM CDT MON OCT 20 2014

NOTE: "FAIR" INDICATES FEW OR NO CLOUDS BELOW 12,000 FEET WITH NO
SIGNIFICANT WEATHER AND/OR OBSTRUCTIONS TO VISIBILITY.

* - THESE STATIONS ARE NOT NWS STATIONS...THUS NOT UNDER NWS
QUALITY CONTROL.  THEY ALSO DO NOT REPORT WEATHER SUCH
AS PRECIPITATION OR FOG.

IAZ001>003-012>014-020>022-031>034-043>046-210300-
   NORTHWEST IOWA

CITY           SKY/WX    TMP DP  RH WIND       PRES   REMARKS
CARROLL *      MOCLDY    45  41  87 CALM      30.04S
CHEROKEE *     CLEAR     46  41  81 CALM      30.04S
DENISON *      CLEAR     46  41  81 CALM      30.04R
LE MARS *      CLEAR     43  37  81 CALM      30.05R
ORANGE CITY *  CLEAR     55  39  54 CALM      30.05R
SHELDON *      CLEAR     45  37  76 NE3       30.03S
SIOUX CITY     CLEAR     45  39  79 CALM      30.04S
SPENCER        CLEAR     47  37  68 CALM      30.04S
STORM LAKE *   CLEAR     55  37  50 W5        30.04F
$$

IAZ055>058-069>071-079>083-090>094-210300-
   SOUTHWEST IOWA

CITY           SKY/WX    TMP DP  RH WIND       PRES   REMARKS
ATLANTIC *     CLEAR     46  41  81 CALM      30.05S
AUDUBON *      CLEAR     45  37  76 CALM      30.06S
CLARINDA *     CLEAR     46  43  87 CALM      30.07R
COUNCIL BLFS * CLEAR     59  39  47 NE3       30.04S
CRESTON *      CLEAR     52  41  66 CALM      30.05S
HARLAN  *      CLEAR     46  41  81 CALM      30.08S
LAMONI         CLEAR     54  42  64 W6        30.05R
RED OAK *      CLEAR     48  41  76 CALM      30.05S
SHENANDOAH *   CLEAR     48  43  81 S3        30.06S
$$

IAZ047>049-059>061-072>074-084-210300-
   CENTRAL IOWA

CITY           SKY/WX    TMP DP  RH WIND       PRES   REMARKS
AMES           CLEAR     52  40  63 CALM      30.02S
ANKENY *       CLEAR     50  43  76 CALM      30.02S
CHARITON *     CLEAR     54  43  66 W7        30.03S
DES MOINES     CLEAR     57  40  52 W3        30.03S
GRINNELL*      CLEAR     54  41  61 CALM      30.03R
KNOXVILLE *    CLEAR     59  39  47 W6        30.02R
MARSHALLTOWN   CLEAR     51  40  65 N6        30.02R
PELLA *          N/A     55  41  58 N3        30.03R
PERRY *          N/A     50  41  71 NW3       30.04R
$$

IAZ004>006-015-016-023>025-035-036-210300-
   NORTH CENTRAL IOWA

CITY           SKY/WX    TMP DP  RH WIND       PRES   REMARKS
ALGONA *       CLEAR     54  39  58 N3        30.04S
CLARION *      CLEAR     46  39  76 N5        30.03R
ESTHERVILLE    CLEAR     45  35  68 NW5       30.04R
FORT DODGE *   CLEAR     46  37  71 CALM      30.04R
MASON CITY     CLEAR     48  40  73 N5        30.04R
FOREST CITY *  CLEAR     48  41  76 CALM      30.03S
IOWA FALLS *     N/A     48  39  71 NW5       30.04R
$$

IAZ007>011-017>019-026>030-037>042-050>054-066-210300-
   NORTHEAST IOWA

CITY           SKY/WX    TMP DP  RH WIND       PRES   REMARKS
CEDAR RAPIDS   CLEAR     50  41  71 VRB5      30.00R
CHARLES CITY * CLEAR     52  41  66 N6        30.03R
CLINTON *      CLEAR     50  41  71 N8        30.02R
DECORAH *      PTCLDY    54  41  62 NE5       30.02R
DUBUQUE        CLEAR     52  42  69 NE6       30.01R
MONTICELLO *   CLEAR     46  43  87 CALM      30.00S
OELWEIN *      CLEAR     50  41  71 NE5       30.02R
WATERLOO       CLEAR     47  40  76 NW3       30.01R
$$

IAZ064-065-067-068-078-210300-
   EAST CENTRAL IOWA

CITY           SKY/WX    TMP DP  RH WIND       PRES   REMARKS
DAVENPORT      CLEAR     50  40  68 NW7       30.00R
IOWA CITY      CLEAR     52  43  71 NW6       30.01R
MT. PLEASANT * CLEAR     54  43  66 W3        30.00S
MUSCATINE *    CLEAR     54  41  62 NW3       30.00R
QUAD CITIES    CLEAR     47  42  83 SW3       29.99R
$$

IAZ062-063-075>077-085>089-095>099-210300-
   SOUTHEAST IOWA

CITY           SKY/WX    TMP DP  RH WIND       PRES   REMARKS
BURLINGTON     CLEAR     50  44  80 NW3       30.00R
FAIRFIELD *    CLEAR     54  41  62 NW6       30.01R
FORT MADISON * CLEAR     55  45  67 W5        30.01R
KEOKUK *       CLEAR     55  45  67 W5        30.00R
OSKALOOSA *      N/A     52  41  66 NW6       30.02R
CENTERVILLE *    N/A     50  45  81 SW3       30.04S
OTTUMWA        CLEAR     49  40  71 NW5       30.01R
WASHINGTON *   CLEAR     52  43  71 NW6       30.00R
$$

ABBREVIATIONS USED IN REMARKS
   TC - TEMPERATURES IN CELSIUS
  WCI - WIND CHILL INDEX
   HX - HEAT INDEX
  VSB - VISIBILITY
$$



USA.gov is the U.S. government's official web portal to all federal, state and local government web resources and services.